CZ-6A DEB, 56681

Orbit data source: Space-Track

CZ-6A DEB, 56681 is space debris in SSO originally from a launch on Fri, 11 Nov 2022 UTC launched from the Taiyaun Space Center, China (TSC). Debris objects in space refer to the collection of defunct objects orbiting the Earth. Examples of debris include non-operational satellites, rocket bodies, and fragments generated from explosions, collisions, or faulty payload assembly.

Loading next visibility...
Identifier
56681, 2022-151AHH
Orbit
SSO
Country
Flag of CNCN / PRC
Related business
Manufacturer
SAST
Mission
Spacecraft
Bus & Motor
Unknown
Mass
Unknown
Launch date (UTC)
2022-11-11 (3 years ago)
Launch vehicle
Unknown
Launch site
Taiyaun Space Center, China (TSC)
Object type
Payload
Rocket body
Debris
Shape & HBR
Unknown shape, 0.1 m
Radar Cross Section
Small (<0.1 m²)

Expand to show TLE details & history
Last TLE update: 22 hours ago

TLE from 22 hours ago
0 CZ-6A DEB
1 56681U 22151AHH 25349.49710468  .00001928  00000-0  93300-3 0  9997
2 56681  98.8120 357.0932 0031547 102.2366 258.2346 14.19395150140569
Epoch: 2025-12-15T11:55Z
TLE epoch observation values (Epoch: 2025-12-15T11:55:49.844Z)
Latitude
0.00003°
Longitude
93.74069°
Altitude
835.014 km
Speed
7.433 km/s
True Right ascension
23h 48m 22s
True Declination
0° 00' 00"
Sunlit
Object was in daylight at epoch
Visualization orbit readout
Latitude
Unknown
Longitude
Unknown
Altitude
Unknown
Speed
Unknown
Apparent Right ascension
Unknown
Apparent Declination
Unknown
Sunlit
N/A
Visualization observer readout
Local Sidereal Time
08:21:17
Azimuth
Unknown
Elevation
Unknown
Doppler factor
Unknown
Orbital elements
Apogee altitude
847.286 km
Perigee altitude
801.841 km
Semi-major axis
7,202.7 km
Eccentricity
0.00315
Inclination
98.812°
RAAN
357.0932°
Arg. of periapsis
102.2366°
True anomaly
257.88098°
Mean anomaly
258.2346°
Eccentric anomaly
258.05776°
Mean motion
3.55059 °/min
Orbital period
101.39 mins
BSTAR
0.000933
Loading maneuver chart data...
Computing Atmospheric mass density...
Loading historical data...
Loading historical data...
Loading historical data...
Loading historical data...
Loading historical data...
Loading historical data...
Loading historical data...

Documentation

Showing up to 5 results
|